When you browse on this site, cookies collect data to enhance your experience and personalize the content and advertising you see.
Visit our Privacy Policy to learn more. By continuing to use the site, you agree to this use of cookies and data.
  • In United Kingdom
  • List of Countries
  • For 7 days
  • Water Temperature
  • Weather Map
  • Weather Widgets
  • user-avatar
    Login

    Hourly Weather Gemerek

    Today, 22 August, Thursday

    Time Temperature Precipitation Wind Pressure Humidity
    00:00 +19°C° 0 mm 1 mps 657 mmHg 72%
    01:00 +18°C° 0 mm 1 mps 656 mmHg 74%
    02:00 +18°C° 0 mm 1 mps 656 mmHg 77%
    03:00 +16°C° 0 mm 1 mps 656 mmHg 79%
    04:00 +16°C° 0 mm 1 mps 656 mmHg 81%
    05:00 +15°C° 0 mm 0 mps 656 mmHg 83%
    06:00 +18°C° 0 mm 1 mps 656 mmHg 75%
    07:00 +20°C° 0 mm 1 mps 657 mmHg 66%
    08:00 +21°C° 0 mm 2 mps 658 mmHg 58%
    09:00 +23°C° 0 mm 2 mps 658 mmHg 52%
    10:00 +24°C° 0 mm 2 mps 658 mmHg 47%
    11:00 +26°C° 0 mm 3 mps 658 mmHg 42%
    12:00 +26°C° 0 mm 3 mps 658 mmHg 41%
    13:00 +26°C° 0 mm 3 mps 658 mmHg 41%
    14:00 +26°C° 0 mm 4 mps 658 mmHg 40%
    15:00 +26°C° 0.1 mm 4 mps 657 mmHg 43%
    16:00 +26°C° 0.1 mm 5 mps 657 mmHg 45%
    17:00 +25°C° 0.1 mm 5 mps 657 mmHg 48%
    18:00 +23°C° 0.1 mm 4 mps 657 mmHg 55%
    19:00 +21°C° 0.1 mm 3 mps 657 mmHg 61%
    20:00 +20°C° 0.1 mm 2 mps 657 mmHg 68%
    21:00 +20°C° 0 mm 1 mps 657 mmHg 71%
    22:00 +20°C° 0 mm 1 mps 657 mmHg 74%
    23:00 +19°C° 0 mm 1 mps 656 mmHg 77%

    Tomorrow, 23 August, Friday

    Time Temperature Precipitation Wind Pressure Humidity
    00:00 +19°C° 0 mm 1 mps 656 mmHg 80%
    01:00 +18°C° 0 mm 1 mps 656 mmHg 83%
    02:00 +18°C° 0 mm 1 mps 656 mmHg 86%
    03:00 +18°C° 0 mm 1 mps 656 mmHg 87%
    04:00 +18°C° 0 mm 1 mps 656 mmHg 87%
    05:00 +16°C° 0 mm 1 mps 656 mmHg 88%
    06:00 +19°C° 0 mm 1 mps 657 mmHg 80%
    07:00 +20°C° 0 mm 1 mps 657 mmHg 72%
    08:00 +21°C° 0 mm 2 mps 658 mmHg 64%
    09:00 +21°C° 0 mm 2 mps 658 mmHg 60%
    10:00 +22°C° 0 mm 3 mps 658 mmHg 57%
    11:00 +24°C° 0 mm 3 mps 658 mmHg 53%
    12:00 +24°C° 0 mm 3 mps 658 mmHg 52%
    13:00 +25°C° 0 mm 3 mps 658 mmHg 51%
    14:00 +25°C° 0 mm 3 mps 658 mmHg 49%
    15:00 +25°C° 0.1 mm 4 mps 658 mmHg 51%
    16:00 +25°C° 0.1 mm 4 mps 657 mmHg 53%
    17:00 +23°C° 0.1 mm 5 mps 657 mmHg 55%
    18:00 +22°C° 0 mm 4 mps 657 mmHg 61%
    19:00 +21°C° 0 mm 3 mps 658 mmHg 67%
    20:00 +20°C° 0 mm 2 mps 658 mmHg 73%
    21:00 +19°C° 0 mm 2 mps 657 mmHg 77%
    22:00 +18°C° 0 mm 2 mps 657 mmHg 80%
    23:00 +19°C° 0 mm 1 mps 657 mmHg 84%

    Day after tomorrow, 24 August, Saturday

    Time Temperature Precipitation Wind Pressure Humidity
    00:00 +18°C° 0 mm 1 mps 657 mmHg 86%
    01:00 +17°C° 0 mm 2 mps 657 mmHg 87%
    02:00 +17°C° 0 mm 2 mps 657 mmHg 89%
    03:00 +17°C° 0 mm 2 mps 657 mmHg 89%
    04:00 +16°C° 0 mm 2 mps 657 mmHg 89%
    05:00 +16°C° 0 mm 2 mps 657 mmHg 89%
    06:00 +18°C° 0 mm 2 mps 658 mmHg 83%
    07:00 +19°C° 0 mm 2 mps 658 mmHg 76%
    08:00 +20°C° 0 mm 3 mps 659 mmHg 70%
    09:00 +22°C° 0 mm 3 mps 659 mmHg 63%
    10:00 +24°C° 0 mm 3 mps 659 mmHg 55%
    11:00 +26°C° 0 mm 3 mps 659 mmHg 48%
    12:00 +27°C° 0 mm 3 mps 659 mmHg 43%
    13:00 +29°C° 0 mm 3 mps 659 mmHg 39%
    14:00 +30°C° 0 mm 3 mps 659 mmHg 34%
    15:00 +29°C° 0 mm 4 mps 659 mmHg 35%
    16:00 +29°C° 0 mm 5 mps 659 mmHg 37%
    17:00 +29°C° 0 mm 5 mps 658 mmHg 38%
    18:00 +27°C° 0 mm 5 mps 658 mmHg 47%
    19:00 +25°C° 0 mm 4 mps 658 mmHg 55%
    20:00 +22°C° 0 mm 3 mps 658 mmHg 64%
    21:00 +23°C° 0 mm 2 mps 658 mmHg 67%
    22:00 +21°C° 0 mm 2 mps 658 mmHg 70%
    23:00 +20°C° 0 mm 2 mps 658 mmHg 73%

    25 August, Sunday

    Time Temperature Precipitation Wind Pressure Humidity
    00:00 +20°C° 0 mm 2 mps 658 mmHg 75%
    01:00 +19°C° 0 mm 2 mps 658 mmHg 77%
    02:00 +19°C° 0 mm 2 mps 657 mmHg 79%
    03:00 +18°C° 0 mm 2 mps 657 mmHg 81%
    04:00 +18°C° 0 mm 2 mps 657 mmHg 83%
    05:00 +18°C° 0 mm 2 mps 657 mmHg 84%
    06:00 +19°C° 0 mm 2 mps 657 mmHg 75%
    07:00 +21°C° 0 mm 2 mps 658 mmHg 66%
    08:00 +24°C° 0 mm 2 mps 658 mmHg 56%
    09:00 +26°C° 0 mm 2 mps 659 mmHg 49%
    10:00 +28°C° 0 mm 2 mps 659 mmHg 42%
    11:00 +30°C° 0 mm 2 mps 659 mmHg 35%
    12:00 +31°C° 0 mm 3 mps 659 mmHg 32%
    13:00 +33°C° 0 mm 3 mps 659 mmHg 28%
    14:00 +34°C° 0 mm 3 mps 659 mmHg 25%
    15:00 +33°C° 0 mm 4 mps 658 mmHg 29%
    16:00 +32°C° 0 mm 5 mps 658 mmHg 33%
    17:00 +29°C° 0 mm 6 mps 658 mmHg 37%
    18:00 +28°C° 0 mm 5 mps 658 mmHg 44%
    19:00 +26°C° 0 mm 4 mps 658 mmHg 51%
    20:00 +24°C° 0 mm 3 mps 658 mmHg 59%
    21:00 +24°C° 0 mm 2 mps 658 mmHg 62%
    22:00 +23°C° 0 mm 2 mps 657 mmHg 65%
    23:00 +21°C° 0 mm 2 mps 657 mmHg 68%

    26 August, Monday

    Time Temperature Precipitation Wind Pressure Humidity
    00:00 +21°C° 0 mm 1 mps 657 mmHg 70%
    01:00 +20°C° 0 mm 1 mps 657 mmHg 72%
    02:00 +20°C° 0 mm 1 mps 656 mmHg 74%
    03:00 +19°C° 0 mm 1 mps 656 mmHg 75%
    04:00 +19°C° 0 mm 1 mps 656 mmHg 76%
    05:00 +19°C° 0 mm 1 mps 656 mmHg 77%
    06:00 +18°C° 0 mm 2 mps 657 mmHg 72%
    07:00 +19°C° 0 mm 2 mps 657 mmHg 66%
    08:00 +20°C° 0 mm 2 mps 658 mmHg 61%
    09:00 +23°C° 0 mm 2 mps 658 mmHg 54%
    10:00 +25°C° 0 mm 2 mps 658 mmHg 47%
    11:00 +27°C° 0 mm 2 mps 659 mmHg 40%
    12:00 +28°C° 0 mm 3 mps 659 mmHg 37%
    13:00 +29°C° 0 mm 3 mps 659 mmHg 34%
    14:00 +30°C° 0 mm 4 mps 659 mmHg 31%
    15:00 +29°C° 0 mm 5 mps 658 mmHg 34%
    16:00 +28°C° 0 mm 5 mps 658 mmHg 37%
    17:00 +27°C° 0 mm 6 mps 658 mmHg 40%
    18:00 +26°C° 0 mm 5 mps 658 mmHg 48%
    19:00 +23°C° 0 mm 4 mps 658 mmHg 55%
    20:00 +21°C° 0 mm 3 mps 658 mmHg 63%
    21:00 +21°C° 0 mm 2 mps 658 mmHg 67%
    22:00 +20°C° 0 mm 2 mps 658 mmHg 71%
    23:00 +20°C° 0 mm 1 mps 658 mmHg 75%

    27 August, Tuesday

    Time Temperature Precipitation Wind Pressure Humidity
    00:00 +19°C° 0 mm 1 mps 658 mmHg 76%
    01:00 +19°C° 0 mm 1 mps 658 mmHg 78%
    02:00 +18°C° 0 mm 1 mps 657 mmHg 79%
    03:00 +16°C° 0 mm 1 mps 657 mmHg 81%
    04:00 +16°C° 0 mm 1 mps 657 mmHg 83%
    05:00 +15°C° 0 mm 1 mps 657 mmHg 85%
    06:00 +18°C° 0 mm 1 mps 657 mmHg 77%
    07:00 +20°C° 0 mm 1 mps 658 mmHg 68%
    08:00 +21°C° 0 mm 1 mps 658 mmHg 60%
    09:00 +23°C° 0 mm 1 mps 659 mmHg 51%
    10:00 +25°C° 0 mm 1 mps 659 mmHg 43%
    11:00 +27°C° 0 mm 1 mps 659 mmHg 35%
    12:00 +28°C° 0 mm 2 mps 659 mmHg 31%
    13:00 +29°C° 0 mm 2 mps 659 mmHg 28%
    14:00 +30°C° 0 mm 2 mps 659 mmHg 24%
    15:00 +29°C° 0 mm 3 mps 658 mmHg 25%
    16:00 +29°C° 0 mm 3 mps 658 mmHg 26%
    17:00 +29°C° 0 mm 4 mps 658 mmHg 27%
    18:00 +27°C° 0 mm 3 mps 658 mmHg 32%
    19:00 +25°C° 0 mm 3 mps 658 mmHg 38%
    20:00 +23°C° 0 mm 2 mps 657 mmHg 44%
    21:00 +21°C° 0 mm 2 mps 657 mmHg 49%
    22:00 +22°C° 0 mm 1 mps 657 mmHg 53%
    23:00 +21°C° 0 mm 1 mps 657 mmHg 58%
    Show more